C/2011 F1 ( LINEAR )

Japanese version
Home page
Updated on February 21, 2012

---------------------------------------------------------------------

* Profile

Discovery Date March 17, 2011
Magnitude 18.3 mag
Discoverer Lincoln Laboratory Near-Earth Asteroid Research project

* Pictures

* Orbital Elements

Epoch 2013 Jan. 28.0 TT = JDT 2456320.5
T 2013 Jan. 8.00588 TT                                  MPC
q   1.8190306            (2000.0)            P               Q
z  -0.0000530      Peri.  192.55464     +0.03605585     +0.55369827
 +/-0.0000023      Node    85.11455     -0.82944156     +0.48092941
e   1.0000964      Incl.   56.61270     -0.55742862     -0.67979786
From 1139 observations 2011 Mar. 17-2012 Jan. 25, mean residual 0".5.

* Finding Charts

* Magnitudes Graph

        m1 = 5.0 + 5 log d + 10.0 log r

---------------------------------------------------------------------

The orbital elements are published on M.P.E.C. 2012-B78.
The charts are made with StellaNavigator Ver.8 (AstroArts).
The magnitudes graphs are made with Comet for Windows.

---------------------------------------------------------------------

Copyright(C) Seiichi Yoshida (comet@aerith.net). All rights reserved.